| time (UTC) | temp F | wind direction | speed knots | gust knots | rain 1hr in | rain 24hr in | rain mn in | humidity % | barometer mb |
| 20260510093017 | 66 | 0.0 | 0.0 | 0.00 | 1.39 | 0.00 | 97 | 1013.2 | |
| 20260510090017 | 67 | 0.0 | 0.0 | 0.00 | 1.39 | 0.00 | 97 | 1013.1 | |
| 20260510083017 | 67 | 0.0 | 0.9 | 0.00 | 1.39 | 0.00 | 97 | 1013.1 | |
| 20260510080017 | 67 | 0.0 | 1.7 | 0.00 | 1.39 | 0.00 | 97 | 1012.9 | |
| 20260510073057 | 67 | 0.0 | 1.7 | 0.00 | 1.39 | 0.00 | 97 | 1012.7 | |
| 20260510070017 | 67 | 0.0 | 1.7 | 0.00 | 1.39 | 0.00 | 97 | 1012.5 | |
| 20260510063017 | 67 | 0.0 | 1.7 | 0.00 | 1.39 | 0.00 | 97 | 1012.5 | |
| 20260510060016 | 68 | 113 | 1.7 | 4.3 | 0.00 | 1.39 | 0.00 | 97 | 1013.0 |
| 20260510053017 | 68 | 113 | 1.7 | 4.3 | 0.00 | 1.39 | 0.00 | 97 | 1012.8 |
| 20260510050017 | 69 | 113 | 1.7 | 7.8 | 0.00 | 1.39 | 1.39 | 97 | 1012.4 |
| 20260510043016 | 69 | 113 | 2.6 | 7.0 | 0.00 | 1.39 | 1.39 | 97 | 1011.9 |
| 20260510040016 | 69 | 113 | 1.7 | 7.8 | 0.00 | 1.39 | 1.39 | 97 | 1012.6 |
| 20260510033016 | 69 | 0.0 | 0.0 | 0.00 | 1.39 | 1.39 | 97 | 1012.8 | |
| 20260510030016 | 69 | 0.0 | 0.0 | 0.00 | 1.39 | 1.39 | 97 | 1013.8 | |
| 20260510023056 | 69 | 0.0 | 0.0 | 0.00 | 1.39 | 1.39 | 97 | 1013.6 | |
| 20260510020016 | 69 | 0.0 | 0.0 | 0.00 | 1.39 | 1.39 | 97 | 1013.3 | |
| 20260510013015 | 68 | 0.0 | 2.6 | 0.00 | 1.39 | 1.39 | 97 | 1013.1 | |
| 20260510010016 | 68 | 90 | 2.6 | 7.8 | 0.00 | 1.39 | 1.39 | 97 | 1012.6 |
| 20260510003015 | 69 | 90 | 4.3 | 8.7 | 0.00 | 1.39 | 1.39 | 97 | 1012.1 |
| 20260510000035 | 69 | 0 | 2.6 | 7.0 | 0.00 | 1.39 | 1.39 | 97 | 1012.1 |
| 20260509233018 | 68 | 0.0 | 4.3 | 0.00 | 1.39 | 1.39 | 97 | 1012.1 | |
| 20260509230017 | 68 | 0.0 | 0.0 | 0.01 | 1.43 | 1.39 | 97 | 1012.1 | |
| 20260509223017 | 68 | 0.0 | 1.7 | 0.03 | 1.60 | 1.39 | 97 | 1012.4 | |
| 20260509220017 | 67 | 68 | 0.9 | 4.3 | 0.07 | 1.61 | 1.38 | 97 | 1011.7 |
| 20260509213017 | 67 | 0.0 | 1.7 | 0.05 | 1.59 | 1.36 | 97 | 1012.1 | |
| 20260509210017 | 67 | 0.0 | 2.6 | 0.01 | 1.54 | 1.31 | 97 | 1012.2 | |
| 20260509203017 | 67 | 90 | 4.3 | 9.6 | 0.02 | 1.55 | 1.31 | 97 | 1011.6 |
| 20260509200037 | 67 | 68 | 1.7 | 5.2 | 0.04 | 1.66 | 1.30 | 97 | 1011.9 |
| 20260509193017 | 67 | 0.0 | 4.3 | 0.11 | 2.08 | 1.29 | 97 | 1013.1 | |
| 20260509190017 | 67 | 68 | 2.6 | 7.0 | 0.16 | 2.31 | 1.26 | 97 | 1013.2 |
| 20260509183017 | 67 | 68 | 2.6 | 7.8 | 0.11 | 2.23 | 1.18 | 97 | 1013.8 |
| 20260509180037 | 67 | 68 | 4.3 | 9.6 | 0.04 | 2.15 | 1.10 | 97 | 1012.7 |
| 20260509173016 | 67 | 90 | 5.2 | 13.0 | 0.05 | 2.12 | 1.07 | 97 | 1013.0 |
| 20260509170016 | 67 | 90 | 5.2 | 11.3 | 0.10 | 2.11 | 1.06 | 97 | 1013.1 |
| 20260509163016 | 67 | 68 | 5.2 | 11.3 | 0.25 | 2.07 | 1.02 | 97 | 1013.6 |
| 20260509160016 | 67 | 23 | 3.5 | 8.7 | 0.35 | 2.01 | 0.96 | 97 | 1013.8 |
| 20260509153016 | 67 | 23 | 1.7 | 5.2 | 0.38 | 1.82 | 0.77 | 96 | 1013.5 |
| 20260509150016 | 67 | 23 | 2.6 | 6.1 | 0.26 | 1.66 | 0.61 | 96 | 1013.5 |
| 20260509143016 | 66 | 23 | 0.9 | 4.3 | 0.06 | 1.44 | 0.39 | 96 | 1013.3 |
| 20260509140016 | 66 | 0 | 1.7 | 5.2 | 0.19 | 1.40 | 0.35 | 96 | 1013.2 |
| 20260509133036 | 66 | 0 | 3.5 | 13.0 | 0.33 | 1.38 | 0.33 | 95 | 1013.1 |
| 20260509130056 | 66 | 293 | 9.6 | 25.2 | 0.16 | 1.21 | 0.16 | 94 | 1014.1 |
| 20260509123016 | 72 | 0.0 | 3.5 | 0.00 | 1.05 | 0.00 | 96 | 1011.4 | |
| 20260509120016 | 71 | 0.0 | 2.6 | 0.00 | 1.05 | 0.00 | 96 | 1010.7 | |
| 20260509113016 | 71 | 0.0 | 0.0 | 0.00 | 1.05 | 0.00 | 97 | 1010.6 | |
| 20260509110015 | 71 | 0.0 | 0.0 | 0.00 | 1.05 | 0.00 | 97 | 1010.2 | |
| 20260509103016 | 71 | 0.0 | 0.0 | 0.00 | 1.05 | 0.00 | 97 | 1010.2 | |
| 20260509100017 | 71 | 0.0 | 2.6 | 0.00 | 1.05 | 0.00 | 97 | 1009.7 |